Theta_e
319 320 320 320 320 320 321 321 321 322 323 323 323 323 323 322 321 313 301 312 314 331 327 308 307 308 305 303 302 298 294 290 291 296 302 312 311 318 323 319 323 327 324 329 336
318 319 320 320 320 320 320 320 321 322 322 323 323 322 322 322 311 306 321 333 335 335 307 306 305 309 304 303 301 297 292 293 298 299 305 310 312 317 317 321 323 326 332 335 336
318 319 320 320 321 320 320 320 321 322 322 322 322 321 321 319 301 305 331 338 338 329 308 309 308 306 299 298 298 295 295 297 300 301 306 306 305 313 316 313 322 324 328 331 331
318 319 319 320 320 320 320 320 321 322 322 321 321 321 322 313 295 305 344 342 340 313 308 305 304 299 296 298 297 297 297 299 301 302 306 306 309 311 311 314 323 331 331 332 330
318 318 319 319 319 319 319 319 320 320 320 320 321 322 313 299 301 309 344 339 316 309 305 303 300 298 297 295 296 295 296 298 301 301 302 311 310 311 311 321 326 328 330 328 324
317 318 318 318 318 318 318 318 317 318 318 320 321 323 305 296 307 309 315 318 314 308 306 303 304 301 297 297 297 297 297 297 300 299 305 310 310 312 313 323 322 323 322 322 325
317 317 317 317 317 318 317 317 316 317 319 321 323 319 302 302 307 310 308 306 308 310 305 305 304 302 299 297 299 297 295 297 298 299 305 306 302 308 314 322 323 323 324 327 328
317 316 316 317 317 318 318 318 317 319 321 323 325 309 300 308 310 311 307 308 308 307 306 307 306 301 298 298 299 296 294 290 295 298 302 299 292 309 313 319 318 323 326 328 328
316 316 316 317 317 318 317 316 318 321 323 323 308 303 302 316 309 310 307 307 309 309 309 312 305 300 301 295 293 293 291 291 295 297 298 297 295 310 313 315 316 319 323 323 322
316 315 315 316 316 316 315 316 318 318 319 319 310 301 305 306 310 311 309 309 308 307 306 306 300 297 295 294 289 290 290 292 292 295 296 295 295 310 311 313 313 314 317 319 319
316 315 314 315 315 315 310 308 306 303 301 299 302 303 306 311 310 308 310 310 309 305 297 300 297 292 293 294 295 295 293 292 296 297 296 295 296 308 310 310 310 311 313 315 316
315 315 315 315 315 314 308 306 307 307 303 307 304 305 308 309 304 307 311 306 304 298 299 297 293 297 299 299 297 295 292 291 295 297 294 295 294 302 306 307 309 311 312 313 314
314 314 314 315 314 309 307 309 311 308 299 304 306 305 306 307 304 305 309 305 303 298 296 295 297 301 301 298 297 293 292 292 293 295 293 291 289 295 302 305 309 311 312 313 314
313 314 314 313 310 307 308 312 308 308 293 297 304 307 307 305 304 310 310 307 303 297 298 297 300 300 298 297 296 290 297 296 295 291 287 290 283 288 295 300 306 308 308 310 311
313 314 313 312 304 307 310 308 307 305 285 304 304 308 304 304 304 308 312 309 301 301 301 298 298 297 296 296 298 295 298 293 293 288 285 288 284 286 296 297 300 302 306 307 308
313 313 312 309 306 309 310 306 306 292 285 300 302 300 300 302 304 307 307 310 307 303 301 298 302 300 299 300 298 297 293 290 288 286 282 285 286 287 292 296 298 302 304 304 302
313 312 309 309 307 308 309 305 291 286 299 299 298 299 298 299 303 304 302 300 297 293 293 298 298 301 303 298 298 294 288 282 281 281 282 287 289 290 295 298 300 301 302 300 301
310 309 307 308 304 310 307 299 286 293 298 306 304 299 297 300 300 302 300 298 301 298 294 292 291 299 302 297 292 289 288 283 279 279 282 288 286 291 298 299 300 300 300 301 298
308 308 309 308 307 311 303 291 290 296 304 305 302 296 296 299 298 300 299 299 301 299 294 291 293 301 300 298 297 291 287 289 285 283 282 284 290 297 298 297 298 299 300 295 295
307 310 311 313 312 309 300 294 298 305 308 306 298 301 296 298 297 297 299 304 301 303 300 296 290 298 301 299 297 291 294 286 285 280 280 283 284 288 294 296 297 296 294 295 295
302 302 311 312 312 304 294 294 301 307 309 305 302 300 299 299 298 298 300 302 305 303 302 297 293 293 298 293 292 291 290 287 287 285 280 280 283 291 293 295 295 294 294 294 295
296 295 308 312 302 297 296 301 304 307 309 307 305 303 300 300 298 300 300 302 306 304 298 298 292 289 293 297 298 293 289 288 284 283 283 282 284 294 293 294 295 295 295 295 296
295 296 308 311 298 297 300 304 307 305 307 304 304 305 303 298 295 300 301 307 308 304 299 297 289 282 285 289 295 293 293 290 287 285 283 280 285 295 296 295 295 294 294 296 297
299 295 302 303 300 298 298 299 302 308 306 307 304 303 299 296 298 298 300 304 306 305 310 303 291 287 282 286 292 292 294 293 290 281 285 285 288 292 293 294 295 295 295 295 296
300 298 299 295 298 297 296 299 299 299 303 303 300 301 299 293 295 295 300 300 302 307 299 294 289 291 292 294 295 294 294 294 290 290 286 289 288 291 292 293 295 295 295 296 296
300 297 299 296 297 295 296 296 298 300 300 299 298 303 299 296 297 297 298 296 297 297 295 294 290 291 291 296 295 294 296 295 294 293 291 291 290 294 295 295 295 296 296 295 295
301 302 299 294 295 293 295 297 300 301 303 304 303 300 299 301 303 300 300 300 299 297 294 293 291 289 286 293 293 285 291 294 294 293 292 288 291 294 295 296 296 295 295 295 296
Wind_Speed
6 6 6 7 7 8 9 9 9 10 10 11 11 11 11 11 9 1 4 7 3 3 1 5 4 5 2 4 3 4 6 1 2 4 3 5 4 3 2 7 3 4 6 4 8
7 7 7 7 8 8 9 9 10 11 11 11 11 10 10 8 1 3 9 8 6 3 4 5 6 7 5 4 2 5 4 5 6 5 6 8 6 8 4 4 5 2 6 10 8
6 7 7 7 8 8 9 9 10 11 11 12 12 10 9 2 2 4 5 8 7 4 2 1 1 2 2 2 1 2 6 5 2 4 6 7 5 3 11 1 7 14 10 10 6
6 7 7 7 8 8 8 9 10 11 12 12 13 11 10 1 5 2 7 8 6 4 2 1 4 3 3 4 2 0 3 3 5 5 7 6 6 5 2 6 5 9 10 6 7
6 7 7 7 8 8 8 9 10 12 12 12 13 11 1 5 5 2 8 10 5 4 2 0 3 2 2 3 2 1 2 1 7 10 7 8 5 8 4 5 9 7 7 9 8
6 7 7 8 8 9 9 9 10 11 11 11 12 12 2 4 3 3 7 5 5 3 2 3 1 3 2 4 3 3 5 4 8 6 4 9 4 5 3 6 8 10 7 7 8
7 7 8 9 9 10 10 9 10 11 11 10 9 3 2 10 1 5 3 4 5 5 2 4 3 2 0 2 5 3 5 5 4 4 3 8 4 3 5 6 9 8 7 6 6
7 7 8 9 9 11 11 11 11 11 11 8 3 1 6 5 4 6 2 1 4 4 2 1 5 4 3 1 8 6 7 3 5 5 7 2 4 3 4 9 8 7 6 6 4
8 8 9 9 10 11 12 13 13 10 5 2 1 2 9 9 4 5 0 2 4 2 5 4 5 4 6 5 6 8 1 2 2 3 4 3 2 7 5 7 7 5 5 5 3
8 8 9 9 9 11 15 8 3 2 3 2 1 3 4 4 5 5 2 1 2 3 6 9 7 5 5 6 3 2 3 3 3 3 0 4 5 14 8 7 6 5 4 4 5
10 9 9 9 8 9 9 4 6 5 4 4 3 3 5 6 3 2 1 2 4 10 3 5 9 2 1 3 5 5 4 3 3 4 2 4 5 18 12 7 7 5 5 6 7
11 10 8 7 7 7 2 5 2 3 6 4 4 5 5 1 3 3 1 4 5 3 3 8 3 2 7 6 7 4 3 2 5 3 3 6 2 5 6 3 6 6 6 7 5
12 10 8 7 6 1 1 2 2 2 3 7 4 3 3 6 2 4 3 3 5 6 4 7 3 5 2 3 4 1 3 2 5 5 3 4 4 3 2 4 7 6 5 4 8
13 10 8 8 2 2 1 0 5 5 6 7 3 7 4 3 2 1 2 4 5 4 3 5 2 2 5 3 3 2 3 2 4 2 2 3 4 0 2 3 8 8 6 7 7
14 11 8 1 2 2 4 7 3 6 3 2 3 0 1 6 2 2 2 5 4 3 7 2 5 3 4 2 2 4 4 3 2 2 4 6 5 5 3 3 5 7 7 8 8
14 10 5 1 1 5 6 3 5 9 3 4 1 2 5 2 0 1 3 7 3 6 5 1 3 2 5 2 3 3 1 6 5 4 4 2 4 5 2 6 5 5 8 7 5
16 9 4 0 2 4 2 6 7 4 4 2 1 2 2 3 1 2 2 5 3 4 3 5 3 4 2 2 3 9 8 6 7 7 4 4 2 7 4 4 5 9 7 6 5
20 1 4 3 1 4 5 8 2 3 5 5 3 2 6 4 1 2 3 2 5 5 3 3 5 2 2 3 2 4 5 6 2 1 6 4 2 5 3 3 5 5 7 4 4
13 3 2 4 3 3 8 4 7 6 3 6 3 3 1 1 3 5 2 3 1 2 6 4 3 4 2 2 5 2 0 3 7 2 2 4 5 6 3 3 3 5 5 4 2
3 3 3 7 3 6 7 5 4 4 5 2 1 1 2 2 3 4 4 2 3 2 3 3 1 1 3 2 6 2 5 4 4 0 3 5 5 6 5 8 3 4 3 1 2
4 5 4 5 3 7 4 6 5 6 2 2 3 2 3 2 3 1 3 1 1 3 4 4 5 5 2 0 4 3 2 6 5 5 5 3 7 5 7 7 7 5 2 2 1
3 3 3 2 5 1 2 4 4 6 3 5 3 2 2 2 3 2 4 1 5 1 4 2 5 3 7 2 2 1 1 5 7 3 1 3 9 2 3 4 6 5 2 1 2
2 3 4 3 3 1 4 4 4 3 4 3 3 2 1 3 3 2 2 4 5 4 6 5 2 4 9 7 4 5 2 5 5 3 6 6 8 1 2 2 2 2 3 3 5
3 3 5 5 1 5 2 4 6 6 4 2 3 3 4 3 5 4 2 5 4 3 8 7 3 7 7 7 3 5 2 2 5 4 4 7 6 6 6 5 4 4 4 5 6
4 1 2 1 3 2 1 2 3 7 4 5 3 3 6 3 3 3 2 2 5 2 4 5 3 4 5 5 3 5 6 4 7 6 6 7 7 6 8 7 6 4 4 6 6
2 2 4 0 2 1 3 2 2 6 2 5 1 3 3 7 9 8 6 4 5 1 3 2 2 2 3 3 1 5 9 8 8 5 7 4 7 5 4 3 3 7 5 6 7
2 1 4 2 2 3 2 0 1 2 4 5 4 3 4 7 8 3 4 4 6 10 5 3 6 3 5 4 5 4 4 3 3 3 5 4 7 5 5 5 5 7 6 7 7
Wind_Direction
316 319 322 318 314 314 314 315 311 308 300 299 308 320 323 322 316 317 254 213 179 183 315 327 29 350 75 81 63 118 59 338 217 171 215 138 119 47 88 100 51 323 158 188 109
312 312 314 309 310 309 310 311 308 303 303 307 308 315 311 321 323 247 248 176 156 142 16 28 352 3 30 28 26 93 104 235 184 176 182 173 123 134 85 85 24 40 51 93 117
305 306 303 302 305 306 309 309 307 304 307 308 307 311 310 307 4 272 313 185 164 170 82 69 53 63 67 351 31 124 182 215 112 115 142 132 90 100 119 58 203 169 159 144 140
309 306 301 302 302 303 305 306 305 303 306 307 309 319 317 204 95 310 72 111 132 123 70 36 24 50 58 343 6 267 231 255 121 105 118 123 113 73 74 215 197 152 145 123 104
315 307 300 299 300 302 302 300 297 297 300 305 312 325 149 8 256 260 114 126 120 116 208 97 58 132 11 294 122 334 47 68 66 54 54 78 44 125 42 47 97 116 117 123 125
311 303 303 302 301 299 296 293 287 289 293 303 312 317 358 4 207 86 135 153 150 170 201 161 160 190 91 354 56 324 65 67 50 54 59 112 135 60 277 98 103 118 121 127 140
312 312 305 299 302 298 294 286 283 286 290 297 310 337 49 235 177 338 257 201 173 175 233 197 161 93 120 12 324 49 58 44 126 133 85 104 11 175 133 116 117 117 132 124 118
318 313 303 301 300 296 297 290 287 287 289 283 288 247 255 259 327 326 216 296 170 223 238 190 151 97 46 50 25 51 54 77 314 128 183 48 234 185 143 137 133 142 140 109 113
325 312 302 299 299 304 300 292 289 286 261 210 123 70 285 314 7 317 200 343 334 45 34 86 74 75 24 77 25 8 94 83 30 27 162 196 186 185 164 150 145 142 133 143 164
329 313 302 299 311 314 300 275 296 335 123 202 291 24 306 307 293 323 244 321 23 12 17 39 45 60 31 65 184 232 105 40 89 331 275 172 195 170 170 163 158 162 169 164 199
336 320 310 312 320 323 344 17 22 354 38 204 219 231 268 286 291 308 292 101 40 54 43 10 69 78 318 91 109 101 83 26 308 16 322 226 180 177 170 162 169 183 194 202 224
339 329 321 322 310 321 327 73 149 170 322 252 241 268 271 262 328 314 63 72 57 49 23 32 63 150 119 92 97 79 100 333 293 313 50 4 73 153 154 151 155 179 215 215 232
337 331 325 317 308 4 76 206 56 190 103 301 213 221 233 134 219 279 85 103 83 54 42 120 164 169 92 64 68 81 134 253 225 341 52 12 46 88 124 113 134 183 228 235 223
336 333 324 314 38 286 331 275 309 173 64 283 268 269 146 154 295 256 93 125 38 129 133 97 67 87 56 56 99 16 220 245 272 71 226 41 267 56 321 161 172 185 212 229 250
334 332 326 315 212 48 307 340 114 56 60 250 226 354 53 136 196 359 23 44 120 104 90 258 144 100 71 283 195 221 15 32 359 99 83 3 82 258 149 125 175 198 213 220 229
335 327 316 127 46 253 327 2 49 44 266 335 237 162 99 23 166 123 51 45 110 77 33 63 323 109 189 81 46 330 43 46 56 74 48 332 124 294 228 190 172 192 210 209 192
340 317 177 155 210 307 340 46 42 124 325 307 246 150 124 167 175 103 68 23 101 77 4 11 340 315 133 42 18 48 44 345 1 12 224 332 75 240 284 228 215 194 183 175 188
337 102 238 232 302 0 49 50 121 254 262 287 340 86 166 162 247 70 65 71 35 81 96 137 324 351 19 109 155 46 128 149 266 282 277 316 301 270 232 38 63 97 153 141 43
324 342 12 299 219 65 71 71 213 212 291 327 332 123 44 350 161 91 74 159 148 137 141 136 276 319 71 119 115 151 69 167 104 5 28 276 293 328 151 120 97 116 106 54 65
31 21 340 319 34 63 77 221 236 218 328 335 143 70 120 359 139 97 167 241 136 76 131 183 38 13 315 92 40 139 148 48 12 216 307 304 292 240 233 234 153 161 118 76 156
40 46 267 345 61 52 145 228 262 251 247 257 234 102 111 115 85 74 170 270 211 79 101 113 107 291 351 80 172 29 2 55 110 121 171 280 268 214 257 253 191 194 229 277 207
39 36 304 47 59 34 158 204 263 279 228 237 120 101 121 98 94 121 169 142 342 141 76 62 129 206 239 298 257 149 136 117 113 247 110 151 272 279 282 163 153 198 278 241 304
50 270 313 80 131 295 296 291 252 281 273 179 154 164 144 139 96 77 96 11 30 75 146 181 29 27 350 357 7 74 65 107 102 84 203 139 264 224 217 158 170 237 285 266 310
54 7 330 43 42 120 53 303 315 326 279 63 131 84 97 96 32 138 102 7 14 87 74 83 108 148 185 215 179 294 245 97 127 117 213 223 275 246 231 218 259 286 302 276 295
31 263 179 335 19 74 119 355 339 352 347 346 40 147 151 125 72 113 106 67 28 49 61 98 147 185 246 241 216 238 258 226 194 206 180 261 219 275 208 215 233 236 261 276 283
89 75 359 359 320 57 2 58 49 322 293 323 286 156 177 154 177 197 143 179 193 148 96 25 181 144 292 5 166 272 277 274 235 223 250 263 270 200 195 168 211 229 262 267 280
332 354 106 313 358 101 201 171 212 326 266 237 292 194 193 222 194 191 144 143 163 153 149 119 129 97 267 334 317 343 234 238 284 187 161 201 238 165 206 233 249 242 241 256 273